Weather History for Canadian, TX

Change the Weather History Date:

Monday, March 18, 2013

  Actual Average (KPPA) Record (KPPA)
Temperature  
Mean Temperature 47 °F -  
Max Temperature 58 °F 62 °F 86 °F (1989)
Min Temperature 37 °F 32 °F 10 °F (1965)
Degree Days  
Heating Degree Days 18    
Moisture  
Dew Point 26 °F    
Average Humidity 51    
Maximum Humidity 93    
Minimum Humidity 17    
Precipitation  
Precipitation 0.00 in - - ()
Sea Level Pressure  
Sea Level Pressure 29.91 in    
Wind  
Wind Speed 7 mph (NE)    
Max Wind Speed 16 mph    
Max Gust Speed 23 mph    
Visibility 9 miles    
Events      
Averages and records for this station are not official NWS values.
T = Trace of Precipitation, MM = Missing Value Source: NWS Daily Summary

Daily Weather History Graph

Daily Weather History Graph

Search for Another Location

Airport:

Trip Planner

Search our weather history database for the weather conditions in past years. The results will help you decide how hot, cold, wet, or windy it might be!

Date:

Astronomy

Mar. 18, 2013 Rise Set
Actual Time 7:47 AM CDT 7:51 PM CDT
Civil Twilight 7:22 AM CDT 8:17 PM CDT
Nautical Twilight 6:52 AM CDT 8:47 PM CDT
Astronomical Twilight 6:22 AM CDT 9:17 PM CDT
Moon 11:59 AM CDT (3/18) 1:42 AM CDT (3/18)
Length of Visible Light 12h 55m
Length of Day
12h 04m
Waxing Crescent, 41% of the Moon is Illuminated
Mar 18
Waxing Crescent
Mar 19
First Quarter
Mar 27
Full
Apr 2
Last Quarter
Apr 10
New

Hourly Weather History & Observations

Time (CDT) Temp. Windchill Dew Point Humidity Pressure Visibility Wind Dir Wind Speed Gust Speed Precip Events Conditions
12:15 AM 48.2 °F - 39.4 °F 72% 29.60 in 10.0 mi East 4.6 mph - N/A   Clear
12:35 AM 48.2 °F - 39.4 °F 72% 29.60 in 10.0 mi SSE 6.9 mph - N/A   Clear
12:55 AM 47.5 °F - 39.2 °F 73% 29.61 in 10.0 mi Calm Calm - N/A   Clear
1:15 AM 44.2 °F 39.2 °F 38.8 °F 81% 29.65 in 10.0 mi North 9.2 mph - N/A   Clear
1:35 AM 43.2 °F 41.5 °F 38.7 °F 84% 29.66 in 10.0 mi NNE 3.5 mph - N/A   Clear
1:55 AM 43.0 °F - 38.7 °F 85% 29.66 in 10.0 mi Calm Calm - N/A   Clear
2:15 AM 41.9 °F 39.0 °F 38.3 °F 87% 29.65 in 10.0 mi East 4.6 mph - N/A   Clear
2:35 AM 43.0 °F 38.8 °F 39.2 °F 86% 29.70 in 10.0 mi NE 6.9 mph 17.3 mph N/A   Clear
2:55 AM 40.1 °F - 37.4 °F 90% 29.72 in 7.0 mi Calm Calm - N/A   Clear
3:15 AM 41.4 °F - 38.3 °F 89% 29.73 in 7.0 mi Calm Calm - N/A   Clear
3:35 AM 38.7 °F 34.3 °F 36.3 °F 91% 29.77 in 7.0 mi North 5.8 mph - N/A   Clear
3:55 AM 41.4 °F 33.3 °F 38.7 °F 90% 29.80 in 7.0 mi NNE 16.1 mph 23.0 mph N/A   Clear
4:15 AM 39.2 °F 32.5 °F 36.7 °F 91% 29.81 in 7.0 mi NNE 10.4 mph - N/A   Scattered Clouds
4:35 AM 39.2 °F 31.6 °F 37.4 °F 93% 29.83 in 5.0 mi North 12.7 mph - N/A   Overcast
4:55 AM 39.6 °F 31.3 °F 37.6 °F 93% 29.85 in 5.0 mi North 15.0 mph 20.7 mph N/A   Overcast
5:15 AM 39.9 °F 32.1 °F 37.4 °F 91% 29.86 in 7.0 mi North 13.8 mph - N/A   Overcast
5:35 AM 40.1 °F 33.6 °F 37.0 °F 89% 29.88 in 7.0 mi North 10.4 mph 19.6 mph N/A   Overcast
5:55 AM 39.7 °F 33.7 °F 37.0 °F 90% 29.90 in 7.0 mi North 9.2 mph - N/A   Mostly Cloudy
6:15 AM 39.0 °F 33.4 °F 36.5 °F 91% 29.89 in 7.0 mi North 8.1 mph - N/A   Scattered Clouds
6:35 AM 38.1 °F 35.7 °F 36.3 °F 93% 29.89 in 5.0 mi North 3.5 mph - N/A   Clear
6:55 AM 38.3 °F 33.2 °F 36.1 °F 92% 29.91 in 5.0 mi North 6.9 mph - N/A   Clear
7:15 AM 37.8 °F 35.3 °F 35.4 °F 91% 29.91 in 7.0 mi North 3.5 mph - N/A   Clear
7:35 AM 38.7 °F 36.3 °F 33.1 °F 80% 29.93 in 10.0 mi North 3.5 mph - N/A   Clear
7:55 AM 38.8 °F 36.5 °F 32.0 °F 76% 29.95 in 10.0 mi North 3.5 mph - N/A   Clear
8:15 AM 39.6 °F 35.4 °F 31.5 °F 73% 29.96 in 10.0 mi North 5.8 mph - N/A   Clear
8:35 AM 39.7 °F 37.6 °F 31.6 °F 73% 29.96 in 10.0 mi North 3.5 mph - N/A   Clear
8:55 AM 41.0 °F 36.4 °F 31.3 °F 68% 29.98 in 10.0 mi NNW 6.9 mph - N/A   Clear
9:15 AM 41.9 °F 36.3 °F 31.1 °F 66% 29.98 in 10.0 mi North 9.2 mph - N/A   Clear
9:35 AM 43.0 °F 37.2 °F 30.6 °F 62% 29.99 in 10.0 mi North 10.4 mph - N/A   Clear
9:55 AM 44.4 °F 38.2 °F 29.1 °F 55% 30.00 in 10.0 mi North 12.7 mph 19.6 mph N/A   Clear
10:15 AM 45.7 °F 39.5 °F 28.0 °F 50% 30.02 in 10.0 mi NNE 13.8 mph 20.7 mph N/A   Clear
10:35 AM 46.9 °F - 25.7 °F 44% 30.02 in 10.0 mi NNE 10.4 mph 20.7 mph N/A   Clear
10:55 AM 47.3 °F - 24.8 °F 41% 30.02 in 10.0 mi NNE 15.0 mph - N/A   Clear
11:15 AM 48.4 °F - 23.2 °F 37% 30.02 in 10.0 mi NNE 13.8 mph - N/A   Clear
11:35 AM 50.0 °F - 21.9 °F 33% 30.02 in 10.0 mi NE 13.8 mph 19.6 mph N/A   Clear
11:55 AM 50.4 °F - 21.2 °F 32% 30.03 in 10.0 mi NNE 9.2 mph 19.6 mph N/A   Clear
12:15 PM 51.1 °F - 19.2 °F 29% 30.03 in 10.0 mi NNE 10.4 mph 17.3 mph N/A   Clear
12:35 PM 51.8 °F - 19.2 °F 28% 30.03 in 10.0 mi NE 6.9 mph - N/A   Clear
12:55 PM 52.9 °F - 18.3 °F 26% 30.02 in 10.0 mi NNE 11.5 mph 19.6 mph N/A   Clear
1:15 PM 53.1 °F - 16.0 °F 23% 30.02 in 10.0 mi NE 11.5 mph 17.3 mph N/A   Clear
1:35 PM 53.6 °F - 15.3 °F 22% 30.01 in 10.0 mi NE 6.9 mph 17.3 mph N/A   Clear
1:55 PM 55.0 °F - 13.3 °F 19% 30.00 in 10.0 mi North 11.5 mph 17.3 mph N/A   Clear
2:15 PM 55.2 °F - 13.6 °F 19% 30.00 in 10.0 mi NE 10.4 mph 17.3 mph N/A   Clear
2:35 PM 55.2 °F - 14.0 °F 20% 29.99 in 10.0 mi NE 9.2 mph 19.6 mph N/A   Clear
2:55 PM 55.6 °F - 13.8 °F 19% 29.98 in 10.0 mi NE 6.9 mph - N/A   Clear
3:55 PM 56.7 °F - 13.3 °F 18% 29.98 in 10.0 mi North 9.2 mph - N/A   Clear
4:15 PM 57.0 °F - 13.1 °F 18% 29.98 in 10.0 mi East 3.5 mph - N/A   Clear
4:35 PM 57.6 °F - 13.5 °F 18% 29.98 in 10.0 mi East 5.8 mph - N/A   Clear
4:55 PM 57.6 °F - 12.9 °F 17% 29.98 in 10.0 mi SW 4.6 mph - N/A   Clear
5:15 PM 57.7 °F - 12.9 °F 17% 29.97 in 10.0 mi North 4.6 mph - N/A   Clear
5:35 PM 57.7 °F - 13.5 °F 18% 29.97 in 10.0 mi Calm Calm - N/A   Clear
5:55 PM 57.4 °F - 12.9 °F 17% 29.96 in 10.0 mi NE 3.5 mph - N/A   Clear
6:15 PM 57.6 °F - 12.9 °F 17% 29.96 in 10.0 mi Calm Calm - N/A   Clear
6:35 PM 57.7 °F - 13.3 °F 17% 29.96 in 10.0 mi Calm Calm - N/A   Clear
6:55 PM 57.7 °F - 13.3 °F 17% 29.95 in 10.0 mi ESE 3.5 mph - N/A   Clear
7:15 PM 57.4 °F - 13.6 °F 18% 29.95 in 10.0 mi Calm Calm - N/A   Clear
7:35 PM 56.1 °F - 17.6 °F 22% 29.95 in 10.0 mi SE 3.5 mph - N/A   Clear
7:55 PM 53.6 °F - 18.9 °F 26% 29.95 in 10.0 mi ESE 6.9 mph - N/A   Clear
8:15 PM 53.2 °F - 18.0 °F 25% 29.94 in 10.0 mi SE 6.9 mph - N/A   Clear
8:35 PM 51.8 °F - 19.4 °F 28% 29.94 in 10.0 mi ESE 6.9 mph - N/A   Clear
8:55 PM 51.1 °F - 19.0 °F 28% 29.94 in 10.0 mi SE 9.2 mph - N/A   Clear
9:15 PM 50.0 °F - 19.8 °F 30% 29.94 in 10.0 mi ESE 10.4 mph - N/A   Clear
9:35 PM 50.0 °F - 20.3 °F 31% 29.95 in 10.0 mi SE 10.4 mph - N/A   Clear
9:55 PM 47.7 °F - 21.4 °F 35% 29.96 in 10.0 mi SE 10.4 mph - N/A   Clear
10:15 PM 47.8 °F - 21.7 °F 36% 29.96 in 10.0 mi SE 10.4 mph - N/A   Clear
10:55 PM 47.3 °F - 22.6 °F 38% 29.96 in 10.0 mi ESE 10.4 mph - N/A   Clear
11:15 PM 48.2 °F - 22.5 °F 36% 29.97 in 10.0 mi SE 11.5 mph - N/A   Clear
11:35 PM 48.2 °F - 22.5 °F 36% 29.97 in 10.0 mi SSE 8.1 mph 16.1 mph N/A   Clear
11:55 PM 46.6 °F - 23.2 °F 40% 29.97 in 10.0 mi SSE 11.5 mph - N/A   Clear